Dewpoint
65 64 64 63 65 65 66 65 66 67 67 64 64 64 62 60 57 56 56 57 58 60 61 58 62 66 65 65 65 66 63 64 67 67 66 64 64 66 67 67 67 67 67 66 65 65 64 64 64 65 66 66 66 66 65 65 65 64 65 65 65 65 66 65 65 65 65 65 65 65 64 64 65 65
65 66 66 66 65 65 65 64 64 63 65 65 65 65 64 63 60 59 56 57 59 59 61 59 58 65 64 66 65 65 63 66 66 64 63 63 63 66 66 66 66 67 67 66 65 65 65 64 64 64 65 67 67 67 67 66 65 66 66 66 66 66 64 64 64 65 66 66 65 65 65 65 65 65
65 65 64 65 65 67 66 65 65 65 65 65 66 65 64 63 62 61 59 56 60 62 60 62 63 61 64 66 63 65 65 66 66 64 63 63 65 67 66 65 65 65 66 66 66 65 64 64 64 64 64 65 65 66 66 65 65 66 66 66 66 65 65 64 63 64 64 64 64 65 65 65 65 65
65 65 64 65 65 65 64 64 65 66 66 66 66 66 64 63 63 63 61 59 59 62 62 62 63 64 63 63 62 61 65 66 69 65 64 64 67 65 64 66 66 65 65 65 65 65 64 64 64 64 64 64 65 65 65 65 65 65 65 65 65 65 64 63 64 64 64 64 64 64 66 66 65 65
65 64 63 63 64 66 64 64 65 65 65 66 65 65 65 64 64 63 61 59 60 61 64 63 63 64 64 62 62 61 61 63 64 67 65 65 64 64 63 63 64 64 64 64 64 64 64 64 64 64 64 65 65 65 65 65 65 64 64 64 63 63 64 63 63 63 64 65 65 66 66 65 65 65
64 65 64 64 65 66 64 63 64 64 65 64 63 64 63 63 63 63 61 61 60 60 61 62 64 64 65 63 63 62 62 62 63 63 63 65 65 64 64 63 64 64 65 64 64 64 63 63 63 64 64 64 64 64 64 64 63 64 64 63 63 62 62 62 62 62 62 63 64 64 65 65 65 65
63 63 64 63 64 66 64 65 64 64 64 64 63 63 65 64 63 65 63 62 60 60 60 62 62 62 62 62 61 62 63 64 64 63 63 63 64 65 64 63 63 64 64 64 64 63 63 63 63 63 63 63 63 63 63 63 63 63 62 62 62 62 62 61 61 61 62 62 63 64 65 64 65 65
63 63 63 64 64 64 63 64 63 63 63 63 63 62 64 64 64 63 63 62 60 61 60 61 61 62 61 61 63 64 64 63 63 63 62 63 63 63 65 64 63 64 64 63 63 63 63 62 62 62 62 62 61 61 61 61 61 61 61 61 60 60 60 59 59 60 60 60 60 61 62 62 63 63
64 64 63 63 64 64 61 63 63 63 63 63 63 61 62 62 64 64 63 63 63 62 61 61 62 62 62 62 63 63 63 63 62 63 63 63 63 63 63 64 64 64 64 64 64 63 62 62 62 62 61 61 61 60 60 60 59 59 59 58 58 59 59 58 58 58 59 58 58 59 60 61 61 61
64 64 64 64 64 63 61 62 62 62 61 62 63 63 64 65 65 64 64 64 63 62 61 61 61 61 62 62 62 63 63 63 62 62 62 63 63 63 62 62 63 64 63 63 63 63 63 63 62 62 61 61 60 60 60 60 59 58 57 56 56 58 57 57 57 57 57 57 57 57 58 59 60 61
64 64 64 64 64 63 62 61 61 62 62 63 62 61 66 65 64 63 63 63 63 62 61 61 62 61 62 62 61 63 64 64 63 62 61 61 62 62 62 61 62 63 63 63 63 62 61 62 61 60 60 60 60 60 59 59 58 58 57 56 56 55 55 56 56 55 55 56 56 56 56 56 57 60
64 65 65 64 64 63 63 62 62 62 61 62 62 64 65 65 65 64 64 64 64 63 62 62 61 61 62 62 62 63 62 61 61 62 62 60 60 60 61 61 61 62 62 62 62 62 62 62 62 61 61 61 60 59 59 60 61 60 58 57 58 58 56 55 55 55 55 55 55 55 56 56 56 57
64 64 64 64 64 64 67 69 67 65 65 63 62 65 65 64 62 61 60 60 60 61 61 60 60 60 60 60 60 59 59 59 59 60 60 60 60 60 61 61 62 62 61 60 60 60 60 60 60 59 59 59 61 61 62 62 63 61 59 58 58 58 57 56 56 55 55 55 55 55 55 56 55 55
64 64 64 65 68 68 70 70 70 67 66 66 64 64 63 63 62 61 60 60 60 60 59 59 59 59 59 59 59 59 59 59 59 59 58 57 58 59 59 59 60 61 60 60 59 60 61 61 60 60 60 61 62 61 60 60 60 60 60 60 60 59 58 57 56 55 55 55 55 54 54 54 55 55
64 64 64 64 67 70 69 68 68 67 65 65 65 65 65 64 62 61 61 60 59 59 59 59 59 59 59 58 59 58 58 59 58 59 58 59 59 58 57 57 58 61 61 59 57 56 58 59 58 59 59 59 59 58 58 59 60 59 59 59 59 59 59 59 58 57 56 55 55 55 54 54 54 55
64 64 64 65 66 66 65 65 67 67 65 63 63 63 63 64 63 63 62 60 59 60 60 59 59 59 59 58 58 58 58 58 59 59 59 59 59 58 57 56 55 57 58 56 56 55 56 58 57 57 57 57 58 58 59 59 59 58 58 58 58 58 57 58 58 57 57 57 57 57 56 56 55 55
64 64 63 64 65 66 68 67 65 65 65 64 63 63 64 64 63 61 61 61 62 60 60 60 59 59 59 58 58 59 60 61 59 59 59 59 58 58 57 56 55 55 57 56 55 54 55 56 57 57 58 58 58 58 58 58 58 58 57 57 57 57 57 57 57 56 56 55 55 54 54 55 55 55
65 65 63 64 65 66 67 66 64 64 64 63 63 64 64 64 65 63 61 60 60 61 61 61 60 61 61 60 60 62 61 59 59 59 58 57 55 55 54 54 55 55 57 56 55 55 55 56 56 56 56 57 57 57 57 58 58 57 57 56 56 55 55 55 54 54 54 54 54 53 52 52 52 52
66 65 65 65 66 66 65 65 65 65 65 65 65 64 64 65 65 64 64 64 63 63 62 61 61 62 62 61 62 62 63 62 62 59 57 55 54 54 55 56 56 57 58 57 56 55 55 56 56 56 56 57 57 56 56 57 56 55 54 54 53 53 53 53 53 53 53 54 53 53 52 52 52 51
66 65 66 65 65 67 66 66 64 66 65 63 62 62 63 63 64 65 65 63 64 65 64 63 62 62 62 61 63 61 58 57 57 57 57 57 56 55 54 54 54 55 55 57 56 54 54 55 54 54 53 53 51 52 51 53 53 53 52 53 52 52 52 53 54 54 54 54 54 54 53 52 51 51
66 65 64 65 66 66 66 65 62 63 67 63 62 62 62 62 62 62 63 60 59 59 57 57 57 57 57 56 55 54 54 55 55 54 54 53 54 53 52 52 52 53 55 55 56 54 52 53 51 50 50 50 49 47 47 47 51 52 52 53 53 53 52 53 54 54 54 54 54 54 54 52 52 52
65 66 69 68 66 66 66 62 60 62 65 62 62 62 62 62 61 61 61 61 61 59 59 60 59 58 58 57 56 56 55 54 55 54 53 52 52 52 52 51 52 52 54 55 54 46 46 48 49 47 46 49 47 48 47 48 49 52 52 53 54 54 54 53 53 54 54 54 54 54 53 52 53 54
66 65 68 69 68 66 64 59 59 59 64 62 62 62 62 61 60 58 57 58 58 58 57 56 57 56 56 57 57 59 58 57 58 57 55 54 54 53 53 53 54 54 54 55 49 44 45 45 47 47 46 45 46 48 49 50 51 52 54 55 55 55 55 54 53 52 53 53 53 53 52 52 52 54
66 66 65 66 63 61 60 58 56 56 59 63 63 61 60 58 58 55 55 57 57 55 55 55 55 56 55 55 55 56 56 57 60 60 58 57 56 55 55 56 55 52 48 49 49 47 47 47 47 48 47 46 45 48 49 50 52 53 54 55 55 56 56 56 54 53 52 52 52 53 53 52 52 55
65 64 65 64 60 57 57 54 52 52 55 59 59 58 58 58 57 54 55 56 56 54 55 56 56 55 55 55 56 57 56 56 55 55 53 55 55 55 52 48 48 47 47 48 52 49 48 48 47 47 48 48 48 48 49 51 53 54 56 56 55 56 56 55 55 55 54 54 53 53 53 53 53 55
64 64 64 64 60 55 53 50 49 49 51 55 58 57 53 51 52 55 55 54 54 54 55 53 54 54 54 55 55 55 55 55 56 51 50 50 50 50 49 49 48 48 48 50 53 50 49 48 47 46 47 47 48 50 52 53 54 55 55 55 55 55 56 56 56 56 57 57 57 56 57 55 54 54
64 64 63 63 58 52 49 48 48 48 50 53 55 49 49 49 51 55 55 54 53 52 53 54 54 54 55 55 53 53 54 54 53 51 50 50 50 52 52 52 50 49 50 50 52 54 50 48 48 48 48 49 52 53 54 53 53 54 54 55 56 56 56 57 57 57 57 58 58 56 54 54 54 54
63 63 63 61 51 48 45 46 47 49 51 54 49 47 49 50 53 54 53 52 52 54 52 53 53 53 54 53 51 51 55 53 51 50 51 51 51 51 51 51 52 53 52 51 50 49 49 48 49 50 52 54 54 53 53 54 55 54 54 55 56 56 56 57 57 58 58 58 57 57 57 57 57 57
64 60 54 48 47 46 45 46 48 49 49 50 49 47 49 55 54 53 52 52 53 52 53 54 54 54 53 50 50 51 52 53 51 50 50 51 52 52 52 51 53 53 52 49 46 46 46 48 49 51 54 56 55 54 55 54 54 54 55 55 55 56 56 56 57 57 58 57 57 57 56 56 56 57
53 51 49 48 48 48 49 52 53 54 54 51 51 51 51 53 52 52 51 52 53 52 52 52 53 52 50 50 51 52 51 50 49 50 51 52 52 50 49 47 46 46 46 46 46 46 47 49 52 54 55 55 55 54 54 54 54 54 55 55 56 57 57 57 57 57 57 57 56 56 56 56 57 57
53 51 52 52 52 52 52 54 56 56 58 56 53 53 55 54 53 52 52 52 52 53 52 53 53 51 51 52 51 48 48 49 50 50 52 49 47 48 47 47 45 44 44 45 46 47 49 51 54 56 55 54 54 54 54 55 55 55 55 56 56 54 55 55 56 57 57 56 56 55 55 55 56 57
55 55 53 53 55 54 54 54 55 55 56 57 56 54 53 53 54 55 56 56 54 53 53 52 52 53 52 46 47 48 48 47 48 49 50 49 47 48 46 44 42 43 44 45 48 51 57 56 55 55 55 55 54 54 55 55 55 55 54 55 55 54 55 54 54 54 55 55 54 54 55 55 56 56
57 55 55 55 56 54 54 54 54 53 53 55 56 56 55 54 54 54 54 54 54 54 53 51 49 48 47 46 47 48 47 47 45 46 47 48 45 43 44 44 45 45 45 45 47 48 49 51 55 56 56 55 56 56 56 55 55 55 54 54 54 54 53 53 54 53 53 53 53 53 54 55 56 58
55 54 53 54 54 54 54 53 53 52 52 53 54 55 56 55 55 54 54 53 50 50 49 47 46 46 46 45 46 45 44 44 45 46 47 43 43 44 44 44 43 44 47 46 44 44 46 47 49 52 55 56 57 57 57 55 55 55 54 54 54 53 53 53 53 52 52 52 53 52 52 53 56 57
55 54 54 54 54 55 54 54 54 54 54 54 54 55 55 55 55 53 48 47 49 49 48 47 46 46 45 44 43 43 44 46 45 42 44 45 46 44 43 42 43 45 45 43 42 43 44 43 44 49 52 52 52 53 58 57 55 55 54 54 53 53 53 53 52 51 51 52 53 52 52 52 53 55
56 56 56 56 55 55 55 55 56 55 54 54 54 54 54 53 51 48 47 47 48 47 45 44 45 44 43 44 44 45 45 44 41 40 43 43 43 44 43 45 46 44 42 42 43 42 42 41 44 51 51 51 50 49 49 56 58 55 54 53 53 53 53 52 51 51 51 51 52 52 51 50 51 52
57 56 56 55 55 55 55 54 52 52 49 51 52 52 50 50 49 47 47 48 48 46 45 44 43 44 44 44 44 43 42 41 40 41 43 43 42 43 43 43 42 42 42 42 41 41 42 44 49 51 51 50 49 49 49 52 53 55 54 53 52 52 52 51 50 50 50 51 51 52 51 50 50 51
54 54 54 54 54 55 52 50 51 52 52 52 51 51 50 51 49 49 49 45 44 44 44 42 42 41 38 39 37 37 39 41 44 43 42 40 40 41 40 39 39 41 41 41 43 43 44 45 48 51 50 49 49 49 49 51 52 53 53 53 52 52 52 50 50 50 50 50 50 50 50 50 50 50
55 55 55 53 53 53 52 52 53 52 52 52 51 50 49 49 48 46 46 45 44 42 40 40 38 38 38 36 39 40 41 42 41 40 39 39 41 39 38 39 40 40 41 41 42 42 43 44 48 48 49 50 50 51 52 52 52 53 54 50 51 51 50 50 50 50 50 49 49 49 49 49 50 51
54 55 54 53 53 51 52 53 52 51 51 51 52 51 48 49 47 46 46 46 45 44 41 39 39 37 35 37 38 40 42 41 40 38 39 41 41 40 38 41 42 42 41 41 41 41 42 45 47 45 48 50 52 54 54 54 54 55 53 50 47 49 50 51 50 50 50 50 50 48 46 47 47 48
53 53 53 55 52 53 52 51 51 52 50 48 48 50 51 47 46 45 46 46 48 41 42 40 38 38 38 38 41 42 40 40 39 39 42 40 39 40 42 44 41 41 40 40 40 40 42 44 46 49 51 49 54 53 52 50 49 50 49 49 47 48 47 49 50 50 49 51 49 47 46 46 46 47
54 53 53 54 53 53 52 51 51 50 48 48 48 48 50 48 46 50 47 45 43 44 42 40 40 42 41 42 42 43 38 37 37 38 40 37 37 39 42 41 39 40 40 38 38 40 42 43 44 43 43 49 52 50 49 50 50 49 48 47 48 48 48 48 49 49 50 50 49 46 46 45 46 44
55 53 54 53 52 53 52 53 52 50 48 48 48 49 47 45 43 44 43 43 43 45 43 42 40 40 42 41 42 40 37 37 37 37 36 37 40 39 38 39 40 40 39 40 41 42 41 39 40 41 41 48 51 51 50 50 50 48 46 46 47 47 48 49 49 48 49 50 49 48 48 47 45 43
54 53 51 52 52 51 50 50 49 49 49 49 49 49 47 46 45 45 43 41 39 39 43 43 42 39 41 42 39 37 38 37 38 38 38 40 40 38 40 41 41 39 39 40 40 39 38 38 38 41 42 49 50 50 51 50 48 47 46 46 47 46 46 47 48 48 48 49 48 48 48 48 48 48
53 51 52 51 51 50 50 50 49 48 49 48 48 48 45 43 44 40 39 39 39 39 38 39 41 41 41 39 36 36 37 42 40 41 42 39 36 39 41 40 39 40 39 39 39 37 36 36 38 39 44 50 51 50 52 51 49 47 46 46 46 46 46 47 47 46 46 47 47 48 48 48 48 47